Regional Weather Roundup
Issued by NWS

Home | Current Version | Previous Version | Graphics & Text | Print | Product List | Glossary On
Versions: 1 2 3 4 5 6 7 8 9 10 11 12 13 14 15 16 17 18 19 20 21 22 23 24 25 26 27 28 29 30 31 32 33 34 35 36 37 38 39 40 41 42 43 44 45 46 47 48 49 50
000
ASUS43 KLOT 041810
RWRIL

ILLINOIS REGIONAL WEATHER ROUNDUP
NATIONAL WEATHER SERVICE CHICAGO/ROMEOVILLE IL
1200 PM CST WED MAR 04 2015

NOTE: "FAIR" INDICATES FEW OR NO CLOUDS BELOW 12,000 FEET WITH NO
SIGNIFICANT WEATHER AND/OR OBSTRUCTIONS TO VISIBILITY.

* THESE STATIONS ARE NOT UNDER NWS QUALITY CONTROL. THEY ALSO MAY NOT
  REPORT WEATHER SUCH AS PRECIPITATION OR FOG.

ILZ001-002-007-009-015-016-024-041900-
NORTHWEST ILLINOIS

CITY           SKY/WX    TMP DP  RH WIND       PRES   REMARKS
MOLINE         FAIR      16   4  59 NW15      30.26R WCI   1
6HR MIN TEMP:  11; 6HR MAX TEMP:  16;

STERLING*      FAIR      18   7  62 NW16      30.22R WCI   3
SAVANNA*       FAIR      17   0  47 W12       30.23S WCI   4
$$

ILZ003-004-008-010-011-017-018-041900-
NORTH CENTRAL ILLINOIS

CITY           SKY/WX    TMP DP  RH WIND       PRES   REMARKS
ROCKFORD       PTSUNNY   16   2  54 NW16      30.18F WCI   1
6HR MIN TEMP:  11; 6HR MAX TEMP:  16;

FREEPORT*      FAIR      13   1  59 NW15      30.20S WCI  -3
ROCHELLE*      FAIR      15   5  65 NW14      30.19S WCI   0
DE KALB*       SUNNY     14   5  66 NW16G24   30.14F WCI  -2
PERU*          FAIR      18   7  64 NW16      30.21R WCI   3
$$

ILZ005-006-012>014-019>023-041900-
NORTHEAST ILLINOIS

CITY           SKY/WX    TMP DP  RH WIND       PRES   REMARKS
CHICAGO-OHARE  PTSUNNY   19   8  62 W14G31    30.13R WCI   6
6HR MIN TEMP:  16; 6HR MAX TEMP:  20;

CHICAGO-MIDWAY CLOUDY    22   9  57 W14       30.14R WCI   9
6HR MIN TEMP:  20; 6HR MAX TEMP:  23;

AURORA         SUNNY     18   7  62 W17       30.16S WCI   3
6HR MIN TEMP:  12; 6HR MAX TEMP:  18;

LANSING*       PTSUNNY   23  10  57 NW9       30.12F WCI  13
JOLIET*        PTSUNNY   18   7  61 W8G21     30.17S WCI   8
WAUKEGAN       MOSUNNY   18   0  45 W13G20    30.13R WCI   5
6HR MIN TEMP:  16; 6HR MAX TEMP:  19;

DUPAGE AIRPORT MOSUNNY   19   5  54 NW18      30.14R WCI   4
6HR MIN TEMP:  14; 6HR MAX TEMP:  19; 6HR PCP: TRACE;

KANKAKEE*      CLOUDY    19  11  71 NW13      30.15S WCI   7
WHEELING         N/A    N/A N/A N/A MISG      30.16R
6HR MIN TEMP:  17; 6HR MAX TEMP:  20;

MORRIS*        SUNNY     17  10  71 NW15      30.17S WCI   3
ROMEOVILLE*    PTSUNNY   19   8  64 NW13      30.16S WCI   6
NORTHERLY ISL    N/A     22   6  50 W10         N/A  WCI  11
$$

LMZ740>746-041900-
SOUTHERN LAKE MICHIGAN

STATION/POSITION SKY/WX   TEMP    WIND        PRES    VSBY  WAVE
                          AIR SEA DIR/SP/G                  HT/PER
                          (F)     (DEG/KT/KT) (MB)    (MI)  (FT/S)
WAUKEGAN HARBOR            17                   N/A
HARRISON CRIB              20     300/ 13/ 18   N/A
BURNHAM HARBOR             22     310/ 11/ 14   N/A
CALUMET HARBOR             22     260/  9/ 14 1019.0F
MICHIGAN CITY              22     290/ 14/ 17   N/A
$$

ILZ025>027-034>036-040-047-049-050-058-095>099-041900-
WEST-CENTRAL ILLINOIS

CITY           SKY/WX    TMP DP  RH WIND       PRES   REMARKS
QUINCY         CLOUDY    20   3  48 N16       30.24S WCI   6
GALESBURG*     FAIR      17   6  63 NW13      30.24R WCI   3
MACOMB*        FAIR      18   8  66 NW20      30.29R WCI   1
JACKSONVILLE*  CLOUDY    20   6  55 NW14      30.24R WCI   7
PITTSFIELD*    CLOUDY    21   6  53 NW14      30.25R WCI   8
$$

ILZ028>032-037-038-041>044-048-051>054-059>061-041900-
CENTRAL ILLINOIS

CITY           SKY/WX    TMP DP  RH WIND       PRES   REMARKS
PONTIAC        PTSUNNY   18  10  73 NW15G21   30.19R WCI   3
BLOOMINGTON    FAIR      18   6  59 NW15      30.18R WCI   4
DECATUR        CLOUDY    19   7  59 NW14G22   30.20R WCI   6
PEORIA         FAIR      19   2  47 NW10      30.23R WCI   7
6HR MIN TEMP:  13; 6HR MAX TEMP:  19;

LACON*         FAIR      17   5  59 NW15G22   30.23R WCI   2
LINCOLN*       CLOUDY    21   6  52 NW8G16    30.24R WCI  11
SPRINGFIELD    CLOUDY    19   6  57 NW9       30.24R WCI   8
6HR MIN TEMP:  16; 6HR MAX TEMP:  19;

TAYLORVILLE    PTSUNNY   19   5  53 NW14      30.23R WCI   6
$$

ILZ033-039-045-046-055>057-062-063-041900-
EAST-CENTRAL ILLINOIS

CITY           SKY/WX    TMP DP  RH WIND       PRES   REMARKS
CHAMPAIGN      CLOUDY    17   8  67 NW16      30.15S WCI   2
DANVILLE*      CLOUDY   N/A N/A N/A NW13      30.12R
RANTOUL*       CLOUDY    19   9  67 NW15G25   30.15F WCI   4
MATTOON        CLOUDY    18  11  74 NW16      30.17R WCI   3
PARIS*         CLOUDY    19  14  79 NW15      30.16S WCI   5
$$

ILZ079-100>102-041900-
SOUTHWEST ILLINOIS

CITY           SKY/WX    TMP DP  RH WIND       PRES   REMARKS
ALTON          CLOUDY    21   1  42 N15       30.25R WCI   8
BELLEVILLE     FLURRIES  21  16  79 NW13      30.24R WCI   9
CAHOKIA*       CLOUDY    22  12  65 NW8       30.26R WCI  12
SPARTA*        LGT SNOW  19  16  86 N12       30.24R WCI   7
$$

ILZ064>066-069>071-074>076-080>082-084>086-088>090-092>094-041900-
SOUTH-CENTRAL ILLINOIS

CITY           SKY/WX    TMP DP  RH WIND       PRES   REMARKS
CARBONDALE     LGT SNOW  22  17  81 N20G26    30.19R WCI   7
6HR MIN TEMP:  22; 6HR MAX TEMP:  34; 6HR PCP:  0.10;

CAIRO*         LGT SNOW N/A N/A N/A N20       30.13R
EFFINGHAM*     CLOUDY    21   8  59 W13       30.21S WCI   8
MARION         LGT SNOW  25  21  86 N12G17    30.18R VSB 1   WCI  14
MT. VERNON     CLOUDY    21  12  68 NW3       30.20S VSB 3/4
CENTRALIA*     LGT SNOW  21  12  67 NW14      30.21S WCI   8
SALEM*         CLOUDY    23  13  65 NW13      30.21S WCI  11
METROPOLIS*    MIX PCPN  32  32 100 N12G20    30.10R WCI  23
$$

ILZ067-068-072-073-078-083-087-091-041900-
SOUTHEAST ILLINOIS

CITY           SKY/WX    TMP DP  RH WIND       PRES   REMARKS
LAWRENCEVILLE  CLOUDY    26  18  71 NW20      30.17R WCI  12
FLORA*         CLOUDY    22  14  70 NW10      30.19S WCI  11
FAIRFIELD*     LGT SNOW  24  18  78 NW10G18   30.17S WCI  14
HARRISBURG*    LGT SNOW  27  26  96 N14G20    30.17R VSB 3/4 WCI  15
ROBINSON*      CLOUDY    23  16  75 NW14      30.20R WCI  10
CARMI*         LGT SNOW  28  26  93 CALM      30.15S VSB 3/4
$$

ABBREVIATIONS USED IN REMARKS
   TC - TEMPERATURE IN CELSIUS
  WCI - WIND CHILL INDEX
   HX - HEAT INDEX
  VSB - VISIBILITY
$$



USA.gov is the U.S. government's official web portal to all federal, state and local government web resources and services.